EW1845 Weather Reports


Display with metric or nautical units.
time (UTC)temp
F
wind
direction
speed
MPH
gust
MPH
rain 1hr
in
rain 24hr
in
rain mn
in
humidity
%
barometer
mb
20260505004506 60 210 4.0 11.0 0.00 0.00 0.00 73 1013.9
20260505004501 59 235 5.0 12.0 0.00 0.00 0.00 73 1014.0
20260505003530 60 213 3.0 11.0 0.00 0.00 0.00 72 1013.9
20260505003108 60 169 3.0 8.0 0.00 0.00 0.00 72 1014.0
20260505002538 60 158 4.0 11.0 0.00 0.00 0.00 73 1013.9
20260505001529 61 152 3.0 10.0 0.00 0.00 0.00 72 1013.9
20260505001503 60 227 3.0 8.0 0.00 0.00 0.00 72 1014.0
20260505000457 61 206 4.0 11.0 0.00 0.00 0.00 72 1013.8
20260505000139 61 219 3.0 10.0 0.00 0.00 0.00 72 1013.8
20260504235422 61 188 4.0 11.0 0.00 0.00 0.00 71 1013.8
20260504234504 61 218 3.0 9.0 0.00 0.00 0.00 74 1013.8
20260504234408 61 156 4.0 8.0 0.00 0.00 0.00 74 1013.8
20260504233109 60 204 3.0 12.0 0.00 0.00 0.00 71 1013.7
20260504232204 62 265 4.0 11.0 0.00 0.00 0.00 70 1013.8
20260504231501 61 214 2.0 11.0 0.00 0.00 0.00 71 1013.8
20260504230023 62 206 4.0 15.0 0.00 0.00 0.00 69 1013.9
20260504230002 62 162 5.0 12.0 0.00 0.00 0.00 69 1014.0
20260504225033 62 159 5.0 15.0 0.00 0.00 0.00 70 1013.9
20260504224611 62 219 7.0 16.0 0.00 0.00 0.00 69 1014.1
20260504224038 62 227 5.0 15.0 0.00 0.00 0.00 70 1014.1
20260504223017 62 217 5.0 15.0 0.00 0.00 0.00 70 1014.1
20260504223003 62 210 5.0 16.0 0.00 0.00 0.00 70 1014.2
20260504222024 63 186 5.0 14.0 0.00 0.00 0.00 68 1014.3
20260504221603 62 179 5.0 13.0 0.00 0.00 0.00 67 1014.4
20260504221040 63 186 5.0 17.0 0.00 0.00 0.00 68 1014.4
20260504220057 63 195 5.0 17.0 0.00 0.00 0.00 68 1014.6
20260504215034 63 252 7.0 15.0 0.00 0.00 0.00 66 1014.6
20260504214502 62 256 9.0 16.0 0.00 0.00 0.00 65 1014.8
20260504214046 63 134 6.0 15.0 0.00 0.00 0.00 65 1014.8
20260504211923 63 296 6.0 14.0 0.00 0.00 0.00 64 1014.8
20260504211508 62 181 8.0 15.0 0.00 0.00 0.00 63 1014.9
20260504210906 63 276 5.0 15.0 0.00 0.00 0.00 63 1014.9
20260504210003 63 129 5.0 16.0 0.00 0.00 0.00 63 1014.9
20260504205904 64 243 6.0 15.0 0.00 0.00 0.00 62 1014.8
20260504204854 66 248 5.0 12.0 0.00 0.00 0.00 57 1014.8
20260504204604 65 257 5.0 13.0 0.00 0.00 0.00 57 1014.9
20260504203829 65 281 5.0 11.0 0.00 0.00 0.00 58 1014.8
20260504203007 65 225 4.0 11.0 0.00 0.00 0.00 55 1014.8
20260504202822 65 155 5.0 13.0 0.00 0.00 0.00 57 1014.7
20260504201813 66 172 4.0 13.0 0.00 0.00 0.00 56 1014.7
20260504201602 65 226 4.0 13.0 0.00 0.00 0.00 58 1014.8
20260504195714 65 204 4.0 12.0 0.00 0.00 0.00 58 1014.8
20260504194725 63 204 5.0 12.0 0.00 0.00 0.00 60 1014.9
20260504194503 63 221 7.0 13.0 0.00 0.00 0.00 60 1015.0
20260504193709 64 206 4.0 12.0 0.00 0.00 0.00 58 1015.0
20260504193112 64 217 5.0 13.0 0.00 0.00 0.00 60 1015.1
20260504192720 64 207 4.0 9.0 0.00 0.00 0.00 64 1015.1
20260504191717 63 205 4.0 11.0 0.00 0.00 0.00 62 1015.0
20260504191502 62 266 4.0 9.0 0.00 0.00 0.00 62 1015.0
20260504190651 62 181 3.0 11.0 0.00 0.00 0.00 65 1015.1
20260504190003 61 183 2.0 9.0 0.00 0.00 0.00 65 1015.1
20260504185636 61 211 4.0 9.0 0.00 0.00 0.00 65 1015.2
20260504184608 61 229 3.0 10.0 0.00 0.00 0.00 68 1015.3
20260504183005 60 275 3.0 9.0 0.00 0.00 0.00 68 1015.3
20260504182430 60 240 3.0 10.0 0.00 0.00 0.00 67 1015.3
20260504181606 60 213 2.0 9.0 0.00 0.00 0.00 68 1015.3
20260504181414 61 214 4.0 11.0 0.00 0.00 0.00 67 1015.3
20260504180358 62 225 4.0 11.0 0.00 0.00 0.00 67 1015.2
20260504175335 64 223 1.0 5.0 0.00 0.00 0.00 65 1015.0
20260504174503 62 195 2.0 6.0 0.00 0.00 0.00 68 1015.1
20260504173134 61 195 0.0 5.0 0.00 0.00 0.00 67 1015.0
20260504173115 61 200 2.0 5.0 0.00 0.00 0.00 66 1015.1
20260504172139 60 181 0.0 3.0 0.00 0.00 0.00 67 1015.0
20260504171503 59 212 0.0 4.0 0.00 0.00 0.00 67 1015.0
20260504171131 60 167 0.0 1.0 0.00 0.00 0.00 68 1015.0
20260504170122 60 174 0.0 0.0 0.00 0.00 0.00 70 1014.9
20260504160112 59 150 0.0 3.0 0.00 0.01 0.00 79 1014.7
20260504151028 56 255 0.0 5.0 0.00 0.01 0.00 84 1014.6
20260504140804 54 211 0.0 0.0 0.00 0.01 0.00 88 1014.1
20260504130732 54 41 0.0 1.0 0.00 0.01 0.00 85 1013.9
20260504110446 53 46 0.0 0.0 0.00 0.01 0.00 91 1013.8
20260504100115 54 76 0.0 0.0 0.00 0.01 0.00 87 1013.7
20260504090125 54 76 0.0 0.0 0.00 0.01 0.00 86 1014.4
20260504081718 55 76 0.0 0.0 0.00 0.01 0.00 85 1014.8
20260504081504 55 76 0.0 1.0 0.00 0.01 0.00 86 1015.0
20260504080718 55 76 0.0 0.0 0.00 0.01 0.00 86 1014.8
20260504050149 56 202 0.0 0.0 0.00 0.01 0.01 81 1014.1
20260504050107 55 202 0.0 2.0 0.00 0.01 0.01 81 1014.2
20260504045136 56 196 0.0 0.0 0.00 0.01 0.01 81 1014.2
20260504044504 55 197 0.0 0.0 0.00 0.01 0.01 80 1014.1
20260504044131 56 196 0.0 0.0 0.00 0.01 0.01 80 1014.0
20260504043125 56 196 0.0 0.0 0.00 0.01 0.01 80 1014.2
20260504043103 56 196 0.0 0.0 0.00 0.01 0.01 80 1014.3
20260504042051 57 196 0.0 0.0 0.00 0.01 0.01 79 1014.0
20260504041502 56 244 1.0 3.0 0.00 0.01 0.01 79 1014.1
20260504041102 57 149 0.0 1.0 0.00 0.01 0.01 79 1013.9
20260504040032 57 150 0.0 2.0 0.00 0.01 0.01 79 1013.8
20260504040003 56 139 0.0 3.0 0.00 0.01 0.01 79 1013.8
20260504035042 57 221 0.0 2.0 0.00 0.01 0.01 80 1013.6
20260504034605 56 141 0.0 3.0 0.00 0.01 0.01 79 1013.5
20260504034103 57 240 0.0 2.0 0.00 0.01 0.01 79 1013.7
20260504033110 57 220 0.0 0.0 0.00 0.01 0.01 78 1013.5
20260504033003 56 221 0.0 4.0 0.00 0.01 0.01 78 1013.4
20260504032056 57 224 0.0 1.0 0.00 0.01 0.01 77 1013.3
20260504031603 56 173 1.0 5.0 0.00 0.01 0.01 77 1013.2
20260504025910 57 148 0.0 0.0 0.00 0.01 0.01 76 1013.0
20260504024843 57 240 1.0 8.0 0.00 0.01 0.01 76 1013.3
20260504024503 56 239 2.0 6.0 0.00 0.01 0.01 76 1013.2
20260504023843 57 237 1.0 8.0 0.00 0.01 0.01 76 1013.1
20260504023102 57 245 2.0 6.0 0.00 0.01 0.01 75 1013.1
20260504022829 57 240 1.0 5.0 0.00 0.01 0.01 75 1013.0
20260504021811 58 150 0.0 4.0 0.00 0.01 0.01 74 1012.8
20260504021504 57 182 0.0 5.0 0.00 0.01 0.01 74 1012.9
20260504020741 58 196 0.0 5.0 0.00 0.01 0.01 73 1012.8
20260504020008 57 216 0.0 6.0 0.00 0.01 0.01 73 1012.7
20260504015750 58 207 1.0 5.0 0.00 0.01 0.01 73 1012.7
20260504014806 58 243 2.0 4.0 0.00 0.01 0.01 72 1012.6
20260504014604 58 239 2.0 5.0 0.00 0.01 0.01 72 1012.6
20260504013813 59 165 2.0 7.0 0.00 0.01 0.01 72 1012.5
20260504013008 58 186 3.0 8.0 0.00 0.01 0.01 71 1012.6
20260504012745 59 199 2.0 8.0 0.00 0.01 0.01 71 1012.6
20260504011715 59 248 2.0 8.0 0.00 0.01 0.01 71 1012.4
20260504011602 59 214 1.0 9.0 0.00 0.01 0.01 72 1012.3
20260504010729 60 253 2.0 7.0 0.00 0.01 0.01 71 1012.4
20260504010112 60 209 2.0 8.0 0.00 0.01 0.01 72 1012.3
20260504005754 60 226 2.0 7.0 0.00 0.01 0.01 71 1012.3